This demonstration page uses our WeatherBlox Daily Observations layout. Learn more.

Left ArrowRight Arrow

Hourly Observations for November 29, 2022

Temp ( °F °C ) Dew Point ( °F °C ) Humidity (%) Winds ( mph kmh ) Pressure ( in mb ) Visibility ( mi km ) Precip ( " mm )
12:53 am 00:53 Clear 34 1.1 27 -2.8 75 75 NNE 3 6 29.99 1016 10 16 0.00 0.00
1:53 am 01:53 Clear 32 0 26 -3.3 78 78 NNW 6 9 30.00 1016 10 16 0.00 0.00
2:53 am 02:53 Clear 42 5.6 24 -4.4 48 48 VRB 5 7 30.02 1017 10 16 0.00 0.00
3:53 am 03:53 Clear 36 2.2 25 -3.9 64 64 NNW 5 7 30.02 1017 10 16 0.00 0.00
4:53 am 04:53 Clear 44 6.7 24 -4.4 45 45 N 10 17 30.02 1017 10 16 0.00 0.00
5:53 am 05:53 Clear 44 6.7 24 -4.4 45 45 NNW 8 13 30.03 1017 10 16 0.00 0.00
6:25 am 06:25 Clear 43 6.1 24 -4.4 47 47 NW 6 9 30.06 1018 10 16 0.00 0.00
6:53 am 06:53 Clear 43 6.1 24 -4.4 47 47 NNW 10 17 30.05 1018 10 16 0.00 0.00
7:53 am 07:53 Sunny 43 6.1 25 -3.9 49 49 NNW 9 15 30.06 1018 10 16 0.00 0.00
8:53 am 08:53 Sunny 47 8.3 24 -4.4 40 40 NNW 10 17 30.07 1018 10 16 0.00 0.00
9:53 am 09:53 Sunny 50 10 22 -5.6 33 33 N 12 19 30.07 1018 10 16 0.00 0.00
10:53 am 10:53 Sunny 52 11.1 21 -6.1 29 29 N 10 17 30.06 1018 10 16 0.00 0.00
11:53 am 11:53 Sunny 55 12.8 21 -6.1 26 26 N 10 17 30.03 1017 10 16 0.00 0.00
12:53 pm 12:53 Sunny 56 13.3 19 -7.2 23 23 NNW 7 11 30.01 1016 10 16 0.00 0.00
1:53 pm 13:53 Sunny 57 13.9 20 -6.7 23 23 N 10 17 29.99 1016 10 16 0.00 0.00
2:53 pm 14:53 Sunny 58 14.4 20 -6.7 23 23 NNE 6 9 29.96 1015 10 16 0.00 0.00
3:53 pm 15:53 Sunny 57 13.9 19 -7.2 22 22 NW 5 7 29.96 1014 10 16 0.00 0.00
4:53 pm 16:53 Clear 52 11.1 21 -6.1 29 29 Calm 29.95 1014 10 16 0.00 0.00
5:53 pm 17:53 Clear 47 8.3 23 -5 38 38 Calm 29.97 1015 10 16 0.00 0.00
6:53 pm 18:53 Clear 43 6.1 24 -4.4 47 47 Calm 29.98 1015 10 16 0.00 0.00
7:53 pm 19:53 Clear 41 5 25 -3.9 52 52 Calm 29.98 1015 10 16 0.00 0.00
8:53 pm 20:53 Clear 39 3.9 24 -4.4 55 55 Calm 29.99 1016 10 16 0.00 0.00
9:53 pm 21:53 Clear 39 3.9 25 -3.9 57 57 N 3 6 30.00 1016 10 16 0.00 0.00
10:53 pm 22:53 Clear 38 3.3 26 -3.3 62 62 Calm 30.01 1016 10 16 0.00 0.00
11:53 pm 23:53 Clear 37 2.8 27 -2.8 67 67 Calm 30.01 1016 10 16 0.00 0.00

Powered by AerisWeather